Location: Holcomb Observatory and Planetarium
(39.8415°N, 86.1714°W)
Time: 03:47:13
(UTC-04:00)

Hubble Space Telescope - Visible Passes

Search period start: 05 September 2015 00:00
Search period end: 15 September 2015 00:00
Orbit: 541 x 545 km, 28.5° (Epoch: 04 September)

Date Brightness Start Highest point End Pass type
(mag) Time Alt. Az. Time Alt. Az. Time Alt. Az.
05 Sep 3.2 05:44:51 10° S 05:45:45 11° SSE 05:46:55 10° SSE visible
06 Sep 3.0 05:36:26 13° S 05:36:39 13° SSE 05:38:31 10° SE visible
07 Sep 3.0 05:28:01 14° SSE 05:28:01 14° SSE 05:29:49 10° SE visible
08 Sep 3.0 05:19:36 14° SSE 05:19:36 14° SSE 05:20:59 10° SE visible
09 Sep 3.2 05:11:13 13° SE 05:11:13 13° SE 05:12:03 10° SE visible
09 Sep 2.8 06:47:39 10° SW 06:50:04 15° S 06:52:28 10° SSE visible
10 Sep 3.4 05:02:52 11° SE 05:02:52 11° SE 05:03:04 10° SE visible
10 Sep 2.9 06:38:50 10° SW 06:40:59 14° S 06:43:06 10° SSE visible
11 Sep 3.0 06:30:10 10° SW 06:31:54 12° SSW 06:33:33 10° S visible
12 Sep 3.0 06:21:57 10° SSW 06:22:48 10° SSW 06:23:36 10° S visible
